Location: Newark
(50.1751°N, 5.6239°W)
Time: 15:19:00
(UTC+00:00)

Nauka - Pass Details

Date: 24 September 2021
Orbit: 417 x 423 km, 51.6° (Epoch: 24 October)

Event Time Altitude Azimuth Distance (km) Brightness Sun altitude
Rises 20:28:10 0° 278° (W) 2,366 ? -21.3°
Reaches altitude 10° 20:30:17 10° 281° (WNW) 1,503 ? -21.6°
Enters shadow 20:33:12 58° 316° (NW) 494 ? -22.1°
